| time (UTC) | temp C | wind direction | speed KPH | gust KPH | rain 1hr cm | rain 24hr cm | rain mn cm | humidity % | barometer mb |
| 20260509024023 | 13 | 322 | 1.6 | 4.8 | 0.00 | 0.00 | 0.00 | 85 | 1011.3 |
| 20260509023521 | 13 | 312 | 3.2 | 6.4 | 0.00 | 0.00 | 0.00 | 86 | 1011.1 |
| 20260509023017 | 13 | 299 | 1.6 | 3.2 | 0.00 | 0.00 | 0.00 | 87 | 1011.3 |
| 20260509022514 | 13 | 15 | 3.2 | 4.8 | 0.00 | 0.00 | 0.00 | 86 | 1011.3 |
| 20260509022012 | 13 | 25 | 1.6 | 4.8 | 0.00 | 0.00 | 0.00 | 87 | 1011.3 |
| 20260509021509 | 13 | 309 | 3.2 | 3.2 | 0.00 | 0.00 | 0.00 | 88 | 1011.1 |
| 20260509021005 | 13 | 356 | 0.0 | 0.0 | 0.00 | 0.00 | 0.00 | 87 | 1010.8 |
| 20260509020504 | 13 | 352 | 0.0 | 0.0 | 0.00 | 0.00 | 0.00 | 89 | 1010.6 |
| 20260509020000 | 13 | 107 | 0.0 | 0.0 | 0.00 | 0.00 | 0.00 | 92 | 1010.8 |
| 20260509015459 | 13 | 107 | 0.0 | 0.0 | 0.00 | 0.00 | 0.00 | 92 | 1010.4 |
| 20260509014956 | 13 | 106 | 0.0 | 0.0 | 0.00 | 0.00 | 0.00 | 92 | 1010.4 |
| 20260509014453 | 13 | 106 | 0.0 | 0.0 | 0.00 | 0.00 | 0.00 | 91 | 1010.5 |
| 20260509013948 | 13 | 107 | 0.0 | 0.0 | 0.00 | 0.00 | 0.00 | 91 | 1010.6 |
| 20260509013446 | 13 | 107 | 0.0 | 0.0 | 0.00 | 0.00 | 0.00 | 90 | 1010.3 |
| 20260509012941 | 13 | 107 | 0.0 | 0.0 | 0.00 | 0.00 | 0.00 | 87 | 1010.5 |
| 20260509012438 | 14 | 156 | 0.0 | 0.0 | 0.00 | 0.00 | 0.00 | 83 | 1010.6 |
| 20260509011935 | 13 | 179 | 0.0 | 1.6 | 0.00 | 0.00 | 0.00 | 82 | 1010.4 |
| 20260509011433 | 15 | 61 | 0.0 | 3.2 | 0.00 | 0.00 | 0.00 | 81 | 1010.3 |
| 20260509010931 | 15 | 320 | 0.0 | 0.0 | 0.00 | 0.00 | 0.00 | 80 | 1010.6 |
| 20260509010428 | 15 | 23 | 1.6 | 3.2 | 0.00 | 0.00 | 0.00 | 78 | 1010.6 |
| 20260509005924 | 15 | 341 | 3.2 | 4.8 | 0.00 | 0.00 | 0.00 | 83 | 1010.6 |
| 20260509005423 | 15 | 167 | 0.0 | 0.0 | 0.00 | 0.00 | 0.00 | 80 | 1010.4 |
| 20260509004922 | 15 | 167 | 0.0 | 0.0 | 0.00 | 0.00 | 0.00 | 79 | 1010.3 |
| 20260509004419 | 15 | 167 | 0.0 | 0.0 | 0.00 | 0.00 | 0.00 | 79 | 1010.2 |
| 20260509003917 | 15 | 167 | 0.0 | 0.0 | 0.00 | 0.00 | 0.00 | 78 | 1009.9 |
| 20260509003415 | 15 | 167 | 0.0 | 0.0 | 0.00 | 0.00 | 0.00 | 77 | 1009.8 |
| 20260509002911 | 15 | 167 | 0.0 | 0.0 | 0.00 | 0.00 | 0.00 | 80 | 1009.8 |
| 20260509002410 | 15 | 167 | 0.0 | 0.0 | 0.00 | 0.00 | 0.00 | 83 | 1009.8 |
| 20260509001906 | 15 | 167 | 0.0 | 0.0 | 0.00 | 0.00 | 0.00 | 82 | 1009.8 |
| 20260509001402 | 15 | 167 | 0.0 | 0.0 | 0.00 | 0.00 | 0.00 | 83 | 1009.9 |
| 20260509000900 | 15 | 167 | 0.0 | 0.0 | 0.00 | 0.00 | 0.00 | 83 | 1010.2 |
| 20260509000358 | 15 | 167 | 0.0 | 0.0 | 0.00 | 0.00 | 0.00 | 82 | 1010.2 |
| 20260508235853 | 15 | 167 | 0.0 | 0.0 | 0.00 | 0.00 | 0.00 | 81 | 1009.9 |
| 20260508235351 | 15 | 167 | 0.0 | 0.0 | 0.00 | 0.00 | 0.00 | 80 | 1010.0 |
| 20260508234848 | 15 | 167 | 0.0 | 0.0 | 0.00 | 0.00 | 0.00 | 77 | 1010.0 |
| 20260508234344 | 15 | 167 | 0.0 | 0.0 | 0.00 | 0.00 | 0.00 | 76 | 1009.9 |
| 20260508233843 | 15 | 167 | 0.0 | 0.0 | 0.00 | 0.00 | 0.00 | 78 | 1009.7 |
| 20260508233342 | 15 | 167 | 0.0 | 0.0 | 0.00 | 0.00 | 0.00 | 81 | 1009.6 |
| 20260508232838 | 15 | 167 | 0.0 | 0.0 | 0.00 | 0.00 | 0.00 | 78 | 1009.7 |
| 20260508232334 | 16 | 167 | 0.0 | 0.0 | 0.00 | 0.00 | 0.00 | 77 | 1009.9 |
| 20260508231833 | 16 | 167 | 0.0 | 0.0 | 0.00 | 0.00 | 0.00 | 74 | 1010.1 |
| 20260508231329 | 16 | 167 | 0.0 | 0.0 | 0.00 | 0.00 | 0.00 | 70 | 1010.0 |
| 20260508230826 | 17 | 167 | 0.0 | 0.0 | 0.00 | 0.00 | 0.00 | 68 | 1010.0 |
| 20260508230322 | 17 | 167 | 0.0 | 0.0 | 0.00 | 0.00 | 0.00 | 64 | 1009.9 |
| 20260508225820 | 17 | 167 | 0.0 | 0.0 | 0.00 | 0.00 | 0.00 | 59 | 1009.7 |
| 20260508225316 | 18 | 167 | 0.0 | 0.0 | 0.00 | 0.00 | 0.00 | 53 | 1009.8 |
| 20260508224814 | 18 | 167 | 0.0 | 0.0 | 0.00 | 0.00 | 0.00 | 50 | 1009.9 |
| 20260508224312 | 19 | 186 | 0.0 | 0.0 | 0.00 | 0.00 | 0.00 | 47 | 1009.8 |
| 20260508223809 | 19 | 142 | 1.6 | 3.2 | 0.00 | 0.00 | 0.00 | 46 | 1009.6 |
| 20260508223306 | 19 | 181 | 0.0 | 1.6 | 0.00 | 0.00 | 0.00 | 45 | 1009.5 |
| 20260508222804 | 19 | 156 | 0.0 | 1.6 | 0.00 | 0.00 | 0.00 | 45 | 1009.8 |
| 20260508222301 | 19 | 156 | 0.0 | 0.0 | 0.00 | 0.00 | 0.00 | 45 | 1009.6 |
| 20260508221757 | 19 | 156 | 1.6 | 1.6 | 0.00 | 0.00 | 0.00 | 46 | 1009.7 |
| 20260508221253 | 20 | 177 | 0.0 | 1.6 | 0.00 | 0.00 | 0.00 | 44 | 1009.6 |
| 20260508220749 | 20 | 156 | 1.6 | 1.6 | 0.00 | 0.00 | 0.00 | 43 | 1009.8 |
| 20260508220246 | 19 | 164 | 3.2 | 3.2 | 0.00 | 0.00 | 0.00 | 44 | 1009.6 |
| 20260508215742 | 19 | 201 | 1.6 | 1.6 | 0.00 | 0.00 | 0.00 | 43 | 1009.6 |
| 20260508215239 | 20 | 194 | 1.6 | 3.2 | 0.00 | 0.00 | 0.00 | 43 | 1009.5 |
| 20260508214737 | 20 | 218 | 1.6 | 3.2 | 0.00 | 0.00 | 0.00 | 42 | 1009.6 |
| 20260508214234 | 20 | 171 | 3.2 | 3.2 | 0.00 | 0.00 | 0.00 | 43 | 1009.3 |
| 20260508213730 | 20 | 162 | 3.2 | 3.2 | 0.00 | 0.00 | 0.00 | 42 | 1009.7 |
| 20260508213226 | 20 | 193 | 1.6 | 9.7 | 0.00 | 0.00 | 0.00 | 42 | 1009.7 |
| 20260508212723 | 20 | 157 | 1.6 | 3.2 | 0.00 | 0.00 | 0.00 | 44 | 1009.7 |
| 20260508212219 | 20 | 165 | 0.0 | 6.4 | 0.00 | 0.00 | 0.00 | 43 | 1009.6 |
| 20260508211715 | 20 | 165 | 3.2 | 4.8 | 0.00 | 0.00 | 0.00 | 43 | 1009.7 |
| 20260508211211 | 20 | 148 | 1.6 | 3.2 | 0.00 | 0.00 | 0.00 | 43 | 1009.8 |
| 20260508210709 | 20 | 181 | 8.0 | 9.7 | 0.00 | 0.00 | 0.00 | 41 | 1009.9 |
| 20260508210206 | 20 | 202 | 1.6 | 4.8 | 0.00 | 0.00 | 0.00 | 42 | 1009.9 |
| 20260508205702 | 20 | 212 | 1.6 | 3.2 | 0.00 | 0.00 | 0.00 | 43 | 1010.1 |
| 20260508205159 | 20 | 148 | 1.6 | 4.8 | 0.00 | 0.00 | 0.00 | 42 | 1010.0 |
| 20260508204655 | 20 | 149 | 0.0 | 1.6 | 0.00 | 0.00 | 0.00 | 44 | 1010.6 |
| 20260508204151 | 20 | 207 | 3.2 | 3.2 | 0.00 | 0.00 | 0.00 | 41 | 1010.5 |
| 20260508203648 | 20 | 172 | 0.0 | 4.8 | 0.00 | 0.00 | 0.00 | 41 | 1010.5 |
| 20260508203144 | 20 | 162 | 1.6 | 3.2 | 0.00 | 0.00 | 0.00 | 41 | 1010.8 |
| 20260508202640 | 20 | 194 | 1.6 | 3.2 | 0.00 | 0.00 | 0.00 | 42 | 1010.6 |
| 20260508202138 | 20 | 183 | 3.2 | 4.8 | 0.00 | 0.00 | 0.00 | 41 | 1010.7 |
| 20260508201634 | 20 | 180 | 8.0 | 9.7 | 0.00 | 0.00 | 0.00 | 40 | 1010.8 |
| 20260508201131 | 20 | 237 | 3.2 | 6.4 | 0.00 | 0.00 | 0.00 | 40 | 1010.7 |
| 20260508200628 | 20 | 162 | 1.6 | 1.6 | 0.00 | 0.00 | 0.00 | 43 | 1010.9 |
| 20260508200123 | 20 | 159 | 4.8 | 9.7 | 0.00 | 0.00 | 0.00 | 40 | 1010.9 |
| 20260508195620 | 20 | 195 | 4.8 | 6.4 | 0.00 | 0.00 | 0.00 | 41 | 1010.9 |
| 20260508195117 | 20 | 353 | 1.6 | 3.2 | 0.00 | 0.00 | 0.00 | 42 | 1010.7 |
| 20260508194613 | 20 | 206 | 3.2 | 4.8 | 0.00 | 0.00 | 0.00 | 42 | 1010.9 |
| 20260508194111 | 20 | 203 | 0.0 | 1.6 | 0.00 | 0.00 | 0.00 | 42 | 1011.1 |
| 20260508193607 | 20 | 184 | 3.2 | 4.8 | 0.00 | 0.00 | 0.00 | 41 | 1011.0 |
| 20260508193104 | 20 | 193 | 6.4 | 9.7 | 0.00 | 0.00 | 0.00 | 41 | 1011.0 |
| 20260508192600 | 20 | 194 | 1.6 | 4.8 | 0.00 | 0.00 | 0.00 | 40 | 1011.2 |
| 20260508192058 | 20 | 143 | 4.8 | 11.3 | 0.00 | 0.00 | 0.00 | 41 | 1011.2 |
| 20260508191554 | 20 | 192 | 6.4 | 9.7 | 0.00 | 0.00 | 0.00 | 40 | 1011.3 |
| 20260508191051 | 20 | 270 | 3.2 | 6.4 | 0.00 | 0.00 | 0.00 | 39 | 1011.4 |
| 20260508190548 | 20 | 179 | 8.0 | 11.3 | 0.00 | 0.00 | 0.00 | 40 | 1011.6 |
| 20260508190045 | 20 | 216 | 1.6 | 12.9 | 0.00 | 0.00 | 0.00 | 38 | 1011.4 |
| 20260508185542 | 21 | 150 | 6.4 | 6.4 | 0.00 | 0.00 | 0.00 | 39 | 1011.4 |
| 20260508185039 | 21 | 173 | 4.8 | 6.4 | 0.00 | 0.00 | 0.00 | 38 | 1011.7 |
| 20260508184537 | 21 | 182 | 6.4 | 9.7 | 0.00 | 0.00 | 0.00 | 39 | 1011.8 |
| 20260508184033 | 21 | 202 | 1.6 | 9.7 | 0.00 | 0.00 | 0.00 | 38 | 1011.7 |
| 20260508183530 | 20 | 162 | 4.8 | 9.7 | 0.00 | 0.00 | 0.00 | 39 | 1012.0 |
| 20260508183026 | 20 | 209 | 4.8 | 14.5 | 0.00 | 0.00 | 0.00 | 39 | 1012.1 |
| 20260508182523 | 20 | 186 | 3.2 | 11.3 | 0.00 | 0.00 | 0.00 | 39 | 1012.1 |
| 20260508182019 | 20 | 198 | 3.2 | 9.7 | 0.00 | 0.00 | 0.00 | 42 | 1012.1 |
| 20260508181514 | 20 | 181 | 1.6 | 4.8 | 0.00 | 0.00 | 0.00 | 40 | 1012.2 |
| 20260508181013 | 20 | 190 | 4.8 | 11.3 | 0.00 | 0.00 | 0.00 | 39 | 1012.4 |
| 20260508180509 | 20 | 207 | 4.8 | 11.3 | 0.00 | 0.00 | 0.00 | 39 | 1012.4 |
| 20260508180005 | 20 | 217 | 3.2 | 11.3 | 0.00 | 0.00 | 0.00 | 39 | 1012.7 |
| 20260508175502 | 20 | 311 | 3.2 | 6.4 | 0.00 | 0.00 | 0.00 | 41 | 1012.7 |
| 20260508174959 | 20 | 183 | 6.4 | 11.3 | 0.00 | 0.00 | 0.00 | 43 | 1012.5 |
| 20260508174457 | 20 | 164 | 9.7 | 16.1 | 0.00 | 0.00 | 0.00 | 42 | 1012.7 |
| 20260508173953 | 20 | 197 | 1.6 | 9.7 | 0.00 | 0.00 | 0.00 | 43 | 1012.7 |
| 20260508173451 | 19 | 189 | 4.8 | 11.3 | 0.00 | 0.00 | 0.00 | 41 | 1012.9 |
| 20260508172946 | 19 | 202 | 6.4 | 9.7 | 0.00 | 0.00 | 0.00 | 40 | 1013.2 |
| 20260508172444 | 19 | 264 | 0.0 | 12.9 | 0.00 | 0.00 | 0.00 | 45 | 1013.3 |
| 20260508171940 | 19 | 190 | 1.6 | 4.8 | 0.00 | 0.00 | 0.00 | 45 | 1013.2 |
| 20260508171436 | 18 | 99 | 0.0 | 4.8 | 0.00 | 0.00 | 0.00 | 49 | 1013.2 |
| 20260508170933 | 18 | 195 | 4.8 | 14.5 | 0.00 | 0.00 | 0.00 | 46 | 1013.4 |
| 20260508170431 | 18 | 186 | 4.8 | 14.5 | 0.00 | 0.00 | 0.00 | 45 | 1013.4 |
| 20260508165927 | 18 | 169 | 0.0 | 11.3 | 0.00 | 0.00 | 0.00 | 47 | 1013.5 |
| 20260508165426 | 18 | 197 | 3.2 | 4.8 | 0.00 | 0.00 | 0.00 | 45 | 1013.5 |
| 20260508164921 | 18 | 198 | 3.2 | 14.5 | 0.00 | 0.00 | 0.00 | 45 | 1013.6 |
| 20260508164418 | 18 | 176 | 6.4 | 12.9 | 0.00 | 0.00 | 0.00 | 45 | 1013.9 |
| 20260508163915 | 19 | 174 | 3.2 | 14.5 | 0.00 | 0.00 | 0.00 | 45 | 1013.9 |
| 20260508163413 | 18 | 225 | 4.8 | 11.3 | 0.00 | 0.00 | 0.00 | 45 | 1014.0 |
| 20260508162908 | 19 | 189 | 1.6 | 11.3 | 0.00 | 0.00 | 0.00 | 45 | 1014.0 |
| 20260508162406 | 18 | 164 | 6.4 | 9.7 | 0.00 | 0.00 | 0.00 | 46 | 1014.2 |
| 20260508161903 | 18 | 192 | 4.8 | 22.5 | 0.00 | 0.00 | 0.00 | 45 | 1014.1 |
| 20260508161400 | 19 | 176 | 9.7 | 12.9 | 0.00 | 0.00 | 0.00 | 45 | 1014.0 |
| 20260508160857 | 18 | 171 | 6.4 | 9.7 | 0.00 | 0.00 | 0.00 | 46 | 1014.3 |
| 20260508160356 | 18 | 182 | 8.0 | 12.9 | 0.00 | 0.00 | 0.00 | 47 | 1014.1 |
| 20260508155852 | 18 | 231 | 3.2 | 6.4 | 0.00 | 0.00 | 0.00 | 48 | 1014.1 |
| 20260508155349 | 18 | 236 | 3.2 | 4.8 | 0.00 | 0.00 | 0.00 | 48 | 1014.3 |
| 20260508154846 | 18 | 201 | 1.6 | 6.4 | 0.00 | 0.00 | 0.00 | 49 | 1014.3 |
| 20260508154344 | 18 | 280 | 1.6 | 4.8 | 0.00 | 0.00 | 0.00 | 49 | 1014.6 |
| 20260508153840 | 17 | 183 | 3.2 | 4.8 | 0.00 | 0.00 | 0.00 | 49 | 1014.4 |
| 20260508153337 | 17 | 267 | 6.4 | 11.3 | 0.00 | 0.00 | 0.00 | 50 | 1014.6 |
| 20260508152833 | 17 | 134 | 6.4 | 12.9 | 0.00 | 0.00 | 0.00 | 49 | 1014.7 |
| 20260508152330 | 17 | 243 | 6.4 | 9.7 | 0.00 | 0.00 | 0.00 | 49 | 1014.6 |
| 20260508151826 | 17 | 200 | 3.2 | 4.8 | 0.00 | 0.00 | 0.00 | 50 | 1014.8 |
| 20260508151323 | 17 | 161 | 3.2 | 14.5 | 0.00 | 0.00 | 0.00 | 49 | 1014.8 |
| 20260508150819 | 17 | 146 | 8.0 | 11.3 | 0.00 | 0.00 | 0.00 | 49 | 1014.6 |
| 20260508150316 | 16 | 139 | 4.8 | 9.7 | 0.00 | 0.00 | 0.00 | 52 | 1014.8 |
| 20260508145812 | 16 | 305 | 3.2 | 6.4 | 0.00 | 0.00 | 0.00 | 52 | 1014.8 |
| 20260508145309 | 16 | 152 | 6.4 | 11.3 | 0.00 | 0.00 | 0.00 | 52 | 1015.0 |
| 20260508144806 | 16 | 196 | 1.6 | 9.7 | 0.00 | 0.00 | 0.00 | 51 | 1015.0 |
| 20260508144304 | 16 | 210 | 6.4 | 11.3 | 0.00 | 0.00 | 0.00 | 50 | 1015.0 |
| 20260508143801 | 15 | 195 | 3.2 | 9.7 | 0.00 | 0.00 | 0.00 | 52 | 1015.1 |
| 20260508143258 | 15 | 205 | 8.0 | 14.5 | 0.00 | 0.00 | 0.00 | 51 | 1014.9 |
| 20260508142754 | 15 | 291 | 1.6 | 3.2 | 0.00 | 0.00 | 0.00 | 53 | 1014.9 |
| 20260508142251 | 15 | 195 | 3.2 | 9.7 | 0.00 | 0.00 | 0.00 | 52 | 1015.1 |
| 20260508141748 | 15 | 199 | 6.4 | 11.3 | 0.00 | 0.00 | 0.00 | 52 | 1015.1 |
| 20260508141245 | 14 | 194 | 6.4 | 12.9 | 0.00 | 0.00 | 0.00 | 52 | 1015.3 |
| 20260508140742 | 14 | 166 | 1.6 | 9.7 | 0.00 | 0.00 | 0.00 | 52 | 1015.1 |
| 20260508140239 | 14 | 342 | 4.8 | 12.9 | 0.00 | 0.00 | 0.00 | 53 | 1015.4 |
| 20260508135735 | 14 | 163 | 3.2 | 9.7 | 0.00 | 0.00 | 0.00 | 52 | 1015.3 |
| 20260508135231 | 14 | 192 | 3.2 | 4.8 | 0.00 | 0.00 | 0.00 | 53 | 1015.2 |
| 20260508134727 | 14 | 252 | 3.2 | 14.5 | 0.00 | 0.00 | 0.00 | 52 | 1015.2 |
| 20260508134224 | 14 | 180 | 3.2 | 6.4 | 0.00 | 0.00 | 0.00 | 52 | 1015.4 |
| 20260508133721 | 13 | 241 | 4.8 | 9.7 | 0.00 | 0.00 | 0.00 | 51 | 1015.3 |
| 20260508133219 | 13 | 219 | 1.6 | 9.7 | 0.00 | 0.00 | 0.00 | 54 | 1015.1 |
| 20260508132716 | 13 | 164 | 3.2 | 6.4 | 0.00 | 0.00 | 0.00 | 54 | 1015.2 |
| 20260508132214 | 12 | 165 | 8.0 | 11.3 | 0.00 | 0.00 | 0.00 | 54 | 1015.2 |
| 20260508131709 | 12 | 209 | 3.2 | 6.4 | 0.00 | 0.00 | 0.00 | 55 | 1015.3 |
| 20260508131206 | 12 | 163 | 4.8 | 6.4 | 0.00 | 0.00 | 0.00 | 54 | 1015.2 |
| 20260508130702 | 12 | 185 | 4.8 | 11.3 | 0.00 | 0.00 | 0.00 | 55 | 1015.2 |
| 20260508130159 | 12 | 146 | 1.6 | 4.8 | 0.00 | 0.00 | 0.00 | 55 | 1015.1 |
| 20260508125655 | 13 | 189 | 3.2 | 9.7 | 0.00 | 0.00 | 0.00 | 54 | 1015.0 |
| 20260508125151 | 13 | 192 | 1.6 | 6.4 | 0.00 | 0.00 | 0.00 | 53 | 1015.1 |
| 20260508124650 | 12 | 188 | 1.6 | 6.4 | 0.00 | 0.00 | 0.00 | 54 | 1015.2 |
| 20260508124146 | 12 | 175 | 3.2 | 11.3 | 0.00 | 0.00 | 0.00 | 52 | 1015.2 |
| 20260508123645 | 12 | 168 | 6.4 | 6.4 | 0.00 | 0.00 | 0.00 | 55 | 1015.2 |
| 20260508123142 | 12 | 209 | 8.0 | 11.3 | 0.00 | 0.00 | 0.00 | 56 | 1014.8 |
| 20260508122638 | 11 | 188 | 1.6 | 6.4 | 0.00 | 0.00 | 0.00 | 56 | 1015.0 |
| 20260508122135 | 11 | 184 | 3.2 | 6.4 | 0.00 | 0.00 | 0.00 | 57 | 1015.0 |
| 20260508121633 | 11 | 160 | 3.2 | 12.9 | 0.00 | 0.00 | 0.00 | 57 | 1014.9 |
| 20260508121131 | 11 | 168 | 3.2 | 6.4 | 0.00 | 0.00 | 0.00 | 59 | 1015.2 |
| 20260508120628 | 11 | 191 | 1.6 | 3.2 | 0.00 | 0.00 | 0.00 | 60 | 1015.0 |
| 20260508120127 | 10 | 174 | 0.0 | 0.0 | 0.00 | 0.00 | 0.00 | 61 | 1015.2 |
| 20260508115624 | 10 | 168 | 3.2 | 4.8 | 0.00 | 0.00 | 0.00 | 62 | 1014.8 |
| 20260508115120 | 10 | 178 | 3.2 | 4.8 | 0.00 | 0.00 | 0.00 | 62 | 1014.9 |
| 20260508114618 | 10 | 204 | 3.2 | 4.8 | 0.00 | 0.00 | 0.00 | 62 | 1014.9 |
| 20260508114113 | 10 | 190 | 3.2 | 4.8 | 0.00 | 0.00 | 0.00 | 62 | 1015.0 |
| 20260508113611 | 10 | 161 | 0.0 | 1.6 | 0.00 | 0.00 | 0.00 | 62 | 1014.9 |
| 20260508113109 | 10 | 191 | 0.0 | 3.2 | 0.00 | 0.00 | 0.00 | 61 | 1014.8 |
| 20260508112605 | 10 | 149 | 1.6 | 3.2 | 0.00 | 0.00 | 0.00 | 61 | 1014.6 |
| 20260508112102 | 10 | 175 | 1.6 | 4.8 | 0.00 | 0.00 | 0.00 | 60 | 1014.7 |
| 20260508111559 | 10 | 169 | 3.2 | 4.8 | 0.00 | 0.00 | 0.00 | 60 | 1014.8 |
| 20260508111056 | 10 | 156 | 4.8 | 6.4 | 0.00 | 0.00 | 0.00 | 59 | 1014.9 |
| 20260508110554 | 10 | 160 | 1.6 | 3.2 | 0.00 | 0.00 | 0.00 | 59 | 1014.8 |
| 20260508110049 | 10 | 158 | 1.6 | 1.6 | 0.00 | 0.00 | 0.00 | 59 | 1014.6 |
| 20260508105544 | 10 | 177 | 1.6 | 3.2 | 0.00 | 0.00 | 0.00 | 58 | 1014.5 |
| 20260508105042 | 10 | 190 | 1.6 | 6.4 | 0.00 | 0.00 | 0.00 | 58 | 1014.5 |
| 20260508104540 | 10 | 164 | 1.6 | 3.2 | 0.00 | 0.00 | 0.00 | 59 | 1014.5 |
| 20260508104036 | 10 | 175 | 3.2 | 3.2 | 0.00 | 0.00 | 0.00 | 59 | 1014.5 |
| 20260508103533 | 10 | 155 | 0.0 | 1.6 | 0.00 | 0.00 | 0.00 | 60 | 1014.7 |
| 20260508103031 | 10 | 238 | 0.0 | 0.0 | 0.00 | 0.00 | 0.00 | 59 | 1014.7 |
| 20260508102528 | 10 | 197 | 1.6 | 3.2 | 0.00 | 0.00 | 0.00 | 58 | 1014.7 |
| 20260508102026 | 10 | 170 | 1.6 | 1.6 | 0.00 | 0.00 | 0.00 | 58 | 1014.6 |
| 20260508101523 | 10 | 167 | 0.0 | 4.8 | 0.00 | 0.00 | 0.00 | 58 | 1014.6 |
| 20260508101020 | 10 | 180 | 3.2 | 4.8 | 0.00 | 0.00 | 0.00 | 59 | 1014.5 |
| 20260508100518 | 10 | 170 | 1.6 | 4.8 | 0.00 | 0.00 | 0.00 | 59 | 1014.4 |
| 20260508100015 | 10 | 247 | 0.0 | 3.2 | 0.00 | 0.00 | 0.00 | 59 | 1014.5 |
| 20260508095512 | 10 | 172 | 1.6 | 3.2 | 0.00 | 0.00 | 0.00 | 59 | 1014.5 |
| 20260508095009 | 10 | 192 | 1.6 | 3.2 | 0.00 | 0.00 | 0.00 | 59 | 1014.6 |
| 20260508094506 | 10 | 183 | 1.6 | 3.2 | 0.00 | 0.00 | 0.00 | 60 | 1014.6 |
| 20260508094003 | 10 | 185 | 0.0 | 3.2 | 0.00 | 0.00 | 0.00 | 59 | 1014.6 |
| 20260508093500 | 10 | 178 | 0.0 | 1.6 | 0.00 | 0.00 | 0.00 | 60 | 1014.6 |
| 20260508092957 | 10 | 288 | 1.6 | 1.6 | 0.00 | 0.00 | 0.00 | 59 | 1014.7 |
| 20260508092455 | 10 | 212 | 3.2 | 4.8 | 0.00 | 0.00 | 0.00 | 60 | 1014.5 |
| 20260508091954 | 10 | 202 | 1.6 | 3.2 | 0.00 | 0.00 | 0.00 | 60 | 1014.6 |
| 20260508091450 | 10 | 171 | 0.0 | 3.2 | 0.00 | 0.00 | 0.00 | 60 | 1014.6 |
| 20260508090947 | 10 | 202 | 0.0 | 0.0 | 0.00 | 0.00 | 0.00 | 61 | 1014.6 |
| 20260508090445 | 10 | 174 | 1.6 | 3.2 | 0.00 | 0.00 | 0.00 | 61 | 1014.6 |
| 20260508085941 | 10 | 173 | 0.0 | 1.6 | 0.00 | 0.00 | 0.00 | 61 | 1014.8 |
| 20260508085438 | 10 | 177 | 1.6 | 1.6 | 0.00 | 0.00 | 0.00 | 62 | 1014.7 |
| 20260508084935 | 10 | 174 | 0.0 | 1.6 | 0.00 | 0.00 | 0.00 | 62 | 1014.6 |
| 20260508084431 | 10 | 190 | 0.0 | 3.2 | 0.00 | 0.00 | 0.00 | 62 | 1014.6 |
| 20260508083929 | 9 | 198 | 0.0 | 3.2 | 0.00 | 0.00 | 0.00 | 62 | 1014.3 |
| 20260508083426 | 9 | 207 | 3.2 | 3.2 | 0.00 | 0.00 | 0.00 | 63 | 1014.6 |
| 20260508082926 | 9 | 192 | 0.0 | 4.8 | 0.00 | 0.00 | 0.00 | 62 | 1014.5 |
| 20260508082424 | 9 | 158 | 0.0 | 3.2 | 0.00 | 0.00 | 0.00 | 63 | 1014.5 |
| 20260508081922 | 9 | 197 | 3.2 | 4.8 | 0.00 | 0.00 | 0.00 | 63 | 1014.4 |
| 20260508081418 | 9 | 190 | 3.2 | 3.2 | 0.00 | 0.00 | 0.00 | 63 | 1014.4 |
| 20260508080914 | 9 | 170 | 1.6 | 3.2 | 0.00 | 0.00 | 0.00 | 63 | 1014.5 |
| 20260508080413 | 9 | 185 | 0.0 | 1.6 | 0.00 | 0.00 | 0.00 | 63 | 1014.5 |
| 20260508075909 | 9 | 188 | 1.6 | 3.2 | 0.00 | 0.00 | 0.00 | 63 | 1014.4 |
| 20260508075406 | 9 | 189 | 0.0 | 1.6 | 0.00 | 0.00 | 0.00 | 64 | 1014.4 |
| 20260508074904 | 9 | 168 | 0.0 | 0.0 | 0.00 | 0.00 | 0.00 | 63 | 1014.6 |
| 20260508074401 | 9 | 186 | 3.2 | 4.8 | 0.00 | 0.00 | 0.00 | 62 | 1014.6 |
| 20260508073858 | 9 | 188 | 1.6 | 3.2 | 0.00 | 0.00 | 0.00 | 63 | 1014.4 |
| 20260508073356 | 9 | 200 | 0.0 | 3.2 | 0.00 | 0.00 | 0.00 | 62 | 1014.5 |
| 20260508072852 | 9 | 173 | 1.6 | 1.6 | 0.00 | 0.00 | 0.00 | 63 | 1014.5 |
| 20260508072348 | 9 | 156 | 1.6 | 3.2 | 0.00 | 0.00 | 0.00 | 63 | 1014.4 |
| 20260508071846 | 9 | 184 | 0.0 | 3.2 | 0.00 | 0.00 | 0.00 | 62 | 1014.5 |
| 20260508071344 | 9 | 179 | 0.0 | 1.6 | 0.00 | 0.00 | 0.00 | 62 | 1014.7 |
| 20260508070841 | 9 | 175 | 0.0 | 1.6 | 0.00 | 0.00 | 0.00 | 62 | 1014.4 |
| 20260508070339 | 9 | 174 | 0.0 | 1.6 | 0.00 | 0.00 | 0.00 | 62 | 1014.7 |
| 20260508065837 | 9 | 164 | 1.6 | 3.2 | 0.00 | 0.00 | 0.00 | 62 | 1014.6 |
| 20260508065335 | 10 | 180 | 1.6 | 1.6 | 0.00 | 0.00 | 0.00 | 60 | 1014.6 |
| 20260508064833 | 10 | 187 | 1.6 | 3.2 | 0.00 | 0.00 | 0.00 | 61 | 1014.7 |
| 20260508064330 | 10 | 179 | 0.0 | 3.2 | 0.00 | 0.00 | 0.00 | 59 | 1014.7 |
| 20260508063827 | 10 | 164 | 3.2 | 4.8 | 0.00 | 0.00 | 0.00 | 60 | 1014.8 |
| 20260508063325 | 10 | 169 | 3.2 | 3.2 | 0.00 | 0.00 | 0.00 | 60 | 1014.9 |
| 20260508062822 | 10 | 179 | 3.2 | 3.2 | 0.00 | 0.00 | 0.00 | 60 | 1015.1 |
| 20260508062320 | 10 | 162 | 1.6 | 1.6 | 0.00 | 0.00 | 0.00 | 59 | 1015.1 |
| 20260508061816 | 10 | 187 | 1.6 | 3.2 | 0.00 | 0.00 | 0.00 | 59 | 1015.1 |
| 20260508061314 | 10 | 199 | 1.6 | 3.2 | 0.00 | 0.00 | 0.00 | 59 | 1015.1 |
| 20260508060810 | 10 | 183 | 0.0 | 4.8 | 0.00 | 0.00 | 0.00 | 58 | 1015.1 |
| 20260508060308 | 10 | 182 | 1.6 | 1.6 | 0.00 | 0.00 | 0.00 | 57 | 1015.1 |
| 20260508055808 | 10 | 176 | 1.6 | 3.2 | 0.00 | 0.00 | 0.00 | 58 | 1015.2 |
| 20260508055307 | 10 | 192 | 1.6 | 3.2 | 0.00 | 0.00 | 0.00 | 57 | 1015.0 |
| 20260508054803 | 10 | 161 | 1.6 | 4.8 | 0.00 | 0.00 | 0.00 | 57 | 1015.1 |
| 20260508054300 | 10 | 193 | 3.2 | 9.7 | 0.00 | 0.00 | 0.00 | 56 | 1015.1 |
| 20260508053757 | 10 | 197 | 1.6 | 4.8 | 0.00 | 0.00 | 0.00 | 56 | 1015.1 |
| 20260508053254 | 10 | 164 | 1.6 | 3.2 | 0.00 | 0.00 | 0.00 | 57 | 1015.1 |
| 20260508052752 | 10 | 193 | 1.6 | 3.2 | 0.00 | 0.00 | 0.00 | 56 | 1015.2 |
| 20260508052249 | 10 | 151 | 3.2 | 4.8 | 0.00 | 0.00 | 0.00 | 56 | 1015.2 |
| 20260508051745 | 10 | 181 | 3.2 | 3.2 | 0.00 | 0.00 | 0.00 | 55 | 1015.1 |
| 20260508051240 | 10 | 172 | 0.0 | 1.6 | 0.00 | 0.00 | 0.00 | 56 | 1015.1 |
| 20260508050737 | 10 | 157 | 3.2 | 6.4 | 0.00 | 0.00 | 0.00 | 55 | 1015.0 |
| 20260508050234 | 10 | 182 | 1.6 | 3.2 | 0.00 | 0.00 | 0.00 | 54 | 1015.1 |
| 20260508045729 | 10 | 190 | 0.0 | 3.2 | 0.00 | 0.00 | 0.00 | 55 | 1014.8 |
| 20260508045228 | 10 | 185 | 1.6 | 3.2 | 0.00 | 0.00 | 0.00 | 54 | 1014.9 |
| 20260508044725 | 10 | 154 | 1.6 | 4.8 | 0.00 | 0.00 | 0.00 | 54 | 1015.0 |
| 20260508044222 | 10 | 169 | 1.6 | 1.6 | 0.00 | 0.00 | 0.00 | 55 | 1015.0 |
| 20260508043717 | 10 | 156 | 1.6 | 1.6 | 0.00 | 0.00 | 0.00 | 55 | 1015.2 |
| 20260508043216 | 10 | 167 | 0.0 | 1.6 | 0.00 | 0.00 | 0.00 | 56 | 1015.0 |
| 20260508042712 | 10 | 167 | 1.6 | 1.6 | 0.00 | 0.00 | 0.00 | 57 | 1014.9 |
| 20260508042209 | 10 | 149 | 0.0 | 0.0 | 0.00 | 0.00 | 0.00 | 58 | 1015.0 |
| 20260508041705 | 10 | 148 | 1.6 | 3.2 | 0.00 | 0.00 | 0.00 | 59 | 1015.1 |
| 20260508041203 | 10 | 161 | 1.6 | 1.6 | 0.00 | 0.00 | 0.00 | 58 | 1014.8 |
| 20260508040659 | 10 | 161 | 1.6 | 1.6 | 0.00 | 0.00 | 0.00 | 57 | 1015.0 |
| 20260508040157 | 10 | 163 | 0.0 | 1.6 | 0.00 | 0.00 | 0.00 | 58 | 1014.9 |
| 20260508035654 | 10 | 162 | 0.0 | 3.2 | 0.00 | 0.00 | 0.00 | 56 | 1015.0 |
| 20260508035151 | 10 | 154 | 1.6 | 3.2 | 0.00 | 0.00 | 0.00 | 56 | 1014.7 |
| 20260508034647 | 10 | 159 | 1.6 | 3.2 | 0.00 | 0.00 | 0.00 | 56 | 1014.7 |
| 20260508034144 | 10 | 164 | 1.6 | 3.2 | 0.00 | 0.00 | 0.00 | 56 | 1014.6 |
| 20260508033642 | 10 | 174 | 1.6 | 3.2 | 0.00 | 0.00 | 0.00 | 56 | 1014.9 |
| 20260508033141 | 10 | 178 | 3.2 | 3.2 | 0.00 | 0.00 | 0.00 | 56 | 1014.9 |
| 20260508032636 | 10 | 173 | 1.6 | 3.2 | 0.00 | 0.00 | 0.00 | 56 | 1015.1 |
| 20260508032134 | 10 | 173 | 1.6 | 1.6 | 0.00 | 0.00 | 0.00 | 58 | 1015.2 |
| 20260508031631 | 10 | 167 | 1.6 | 3.2 | 0.00 | 0.00 | 0.00 | 57 | 1014.8 |
| 20260508031127 | 10 | 172 | 1.6 | 3.2 | 0.00 | 0.00 | 0.00 | 58 | 1015.0 |
| 20260508030623 | 10 | 164 | 0.0 | 1.6 | 0.00 | 0.00 | 0.00 | 58 | 1014.9 |
| 20260508030121 | 10 | 165 | 1.6 | 3.2 | 0.00 | 0.00 | 0.00 | 59 | 1014.8 |
| 20260508025617 | 10 | 164 | 0.0 | 0.0 | 0.00 | 0.00 | 0.00 | 59 | 1014.8 |
| 20260508025115 | 10 | 164 | 1.6 | 3.2 | 0.00 | 0.00 | 0.00 | 60 | 1014.8 |
| 20260508024610 | 10 | 163 | 1.6 | 3.2 | 0.00 | 0.00 | 0.00 | 58 | 1015.0 |